loading
|

STARLINK-32151, 60299

Orbit data source: Space-Track

STARLINK-32151, 60299 is a payload satellite owned by SpaceX/Seattle (US) in LEO that was launched on Sun, 28 Jul 2024 UTC via an FALCON 9 launch vehicle from the Air Force Eastern Test Range (AFETR). Payloads include a variety of satellites, spacecraft, and rockets equipped with specific instruments for various scientific and technological missions. These include communications satellites like Starlink; space stations such as the ISS; scientific satellites like the Hubble; Earth observation satellites from companies like Planet Labs, Umbra, and HawkEye 360; GPS; miniature CubeSats for education and research; and military/defense satellites.

Loading next visibility...
Loading greatness...
STARLINK-32151 details
Identifier
60299, 2024-132X
Orbit
LEO
Last TLE update8 hours ago
Origin
Flag of USSpaceX/Seattle (US)
ManufacturerSpaceX/Seattle
Mission statusOperational
MissionUnknown
Bus & MotorSTARLINK V2M, Unknown motor
Mass750 kg wet, ~700 kg dry
Launch date (UTC)
2024-07-28 (2 months ago)
Launch vehicle
FALCON 9
Launch site
Air Force Eastern Test Range (AFETR)
Object type
Payload
Rocket body
Debris
Radar Cross SectionLarge (>1 m²)

Expand to show TLE details & history

TLE from 8 hours ago
0 STARLINK-32151
1 60299U 24132X   24261.60731742  .00028589  00000-0  72141-3 0  9993
2 60299  53.1583  32.0517 0001525  90.7568 269.3611 15.39645441  9176
Epoch: 2024-09-17T14:34Z
Definitive object data (Epoch: 2024-09-17T14:34:32.225Z)
Latitude-0.00005°
Longitude176.39784°
Altitude448.072 km
Speed7.645 km/s
True Right ascension02h 08m 12s
True Declination0° 00' 00"
Sunlit
Object was in full shadow at TLE epoch
Predictive object data (real-time)
Latitude32.55767°
Longitude-156.76157°
Altitude448.558 km
Speed7.648 km/s
Apparent Right ascension03h 40m 01s
Apparent Declination-2° 14' 43"
Sunlit
Object is in full shadow
Predictive observer data (real-time)
Local Sidereal Time15:21:43
Azimuth352.55° N
Elevation-52.101°
Doppler factor1
Orbital elements
Apogee448.456 km
Perigee446.374 km
Semi-major axis6,825.552 km
Eccentricity0.0001525
Inclination53.1583°
RAAN32.0517°
Arg. of periapsis90.7568°
True anomaly269.34363°
Mean anomaly269.3611°
Eccentric anomaly269.35236°
Mean motion3.8489 °/min
BSTAR0.00072141
Period93.53 mins
No data available

STARLINK-32151 Visibility forecast

Observer location: 39.9160978°, -105.1181434

STARLINK-32151 is not visible in the next 10 days
Span
Click to sort rows by Start time (UTC) header in descending order
Start Az.
Max El. time (UTC)
Max El. Az.
Max El.
End time (UTC)
End Az.